Location: Schommer Observatory
(40.5200°N, 74.4500°W)
Time: 15:52:17
(UTC-04:00)

ISS - Pass Details

Date: 16 October 2017
Orbit: 401 x 408 km, 51.6° (Epoch: 21 October)

Event Time Altitude Azimuth Distance (km) Brightness Sun altitude
Rises 19:18:25 0° 297° (WNW) 2,323 1.2 -12.6°
Reaches altitude 10° 19:20:42 10° 284° (WNW) 1,461 0.3 -13.1°
Maximum altitude 19:23:29 26° 226° (SW) 838 -1.7 -13.6°
Drops below altitude 10° 19:26:16 10° 167° (SSE) 1,456 -1.1 -14.1°
Enters shadow 19:27:33 - 158° (SSE) 1,930 -0.6 -14.4°
